Location: Boda
(47.1872°N, 9.5454°E)
Time: 09:15:14
(UTC+00:00)

ADEOS II - Pass Details

Date: 14 May 2021
Orbit: 799 x 801 km, 98.6° (Epoch: 16 June)

Event Time Altitude Azimuth Distance (km) Brightness Sun altitude
Rises 01:12:21 0° 18° (NNE) 3,319 6.8 -19.3°
Reaches altitude 10° 01:14:47 10° 24° (NNE) 2,384 5.8 -19.1°
Maximum altitude 01:19:54 50° 100° (E) 1,018 2.7 -18.7°
Enters shadow 01:23:07 22° 166° (SSE) 1,700 3.4 -18.4°
